Location: Koszewko
(53.2876°N, 14.9061°E)
Time: 00:44:27
(UTC+00:00)

CSL-04 Rocket - Pass Details

Date: 03 March 2021
Orbit: 805 x 861 km, 98.9° (Epoch: 11 April)

Event Time Altitude Azimuth Distance (km) Brightness Sun altitude
Rises 18:22:56 0° 175° (S) 3,426 6.7 -15.8°
Reaches altitude 10° 18:25:21 10° 180° (S) 2,491 6.0 -16.1°
Maximum altitude 18:30:48 57° 259° (WSW) 1,007 4.4 -16.9°
Drops below altitude 10° 18:36:14 10° 337° (NNW) 2,484 6.6 -17.7°
Sets 18:38:39 0° 342° (NNW) 3,416 7.3 -18.0°
